[[{"header":{"parameterUnit":"m.s-1","parameterCategory":1,"la1":30.2991,"la2":30.254,"lo1":-89.0895,"lo2":-89.0444,"dy":0.0017,"dx":0.0017,"nx":28,"ny":28,"refTime":"2024-05-10T09:00:00:Z","depth":0,"parameterNumber":2,"parameterNumberName":"U-component_of_WINDS"},"data":[0,0,0,0,0,0,0,0,0,0,0,0,0,0,0,0,0,0,0,0,0,0,0,0,0,0,0,0,0,0,0,0,0,0,0,0,0,0,0,0,0,0,0,0,0,0,0,0,0,0,0,0,0,0,0,0,0,0,-0.2757,-0.2756,0,-0.2644,-0.2643,-0.2642,-0.2586,-0.2586,-0.2586,-0.2586,-0.2468,-0.2465,-0.2462,0,0,0,0,0,0,0,0,0,0,0,0,0,-0.2922,-0.292,-0.2757,-0.2756,-0.2754,-0.2644,-0.2643,-0.2641,-0.2586,-0.2586,-0.2586,-0.2586,-0.2469,-0.2465,-0.2462,0,0,0,0,0,0,0,0,0,0,0,0,0,-0.2834,-0.2919,-0.2757,-0.2713,-0.2708,-0.2645,-0.2643,-0.2641,-0.2586,-0.2586,-0.2586,-0.2586,-0.247,-0.2466,-0.2461,-0.2432,0,0,-0.2447,-0.2445,0,0,0,0,0,0,0,0,-0.2839,-0.2828,-0.2721,-0.2716,-0.2711,-0.2629,-0.2658,-0.2571,-0.2586,-0.2632,-0.2586,-0.2586,-0.2522,-0.2513,-0.2491,-0.2426,-0.2421,-0.2446,-0.2443,-0.2441,-0.244,0,0,0,0,0,0,0,-0.2845,-0.2833,-0.2712,-0.272,-0.2713,-0.2699,-0.2686,-0.2641,-0.2578,-0.2628,-0.2624,-0.2612,-0.2519,-0.2496,-0.2488,-0.242,-0.2446,-0.2442,-0.2439,-0.2438,-0.2324,-0.2324,0,0,0,0,0,0,-0.2859,-0.2838,-0.2716,-0.2709,-0.2776,-0.2696,-0.2682,-0.2655,-0.2579,-0.2567,-0.2612,-0.2609,-0.2504,-0.2494,-0.2484,-0.2444,-0.2441,-0.2437,-0.2434,-0.2325,-0.2324,-0.2324,0,0,0,0,0,0,-0.2863,-0.2849,-0.272,-0.2772,-0.2755,-0.2693,-0.2664,-0.2653,-0.263,-0.2566,-0.2554,-0.26,-0.2504,-0.249,-0.2445,-0.2439,-0.2435,-0.2431,-0.2325,-0.2324,-0.2324,-0.2365,0,0,0,0,0,0,-0.2868,-0.285,-0.2839,-0.2773,-0.2752,-0.2685,-0.2663,-0.2651,-0.2623,-0.2619,-0.2552,-0.2541,-0.2503,-0.2453,-0.2441,-0.2433,-0.2427,-0.2325,-0.2325,-0.2324,-0.2364,-0.2366,-0.2368,0,0,0,0,0,-0.2874,-0.2855,-0.2839,-0.2824,-0.2737,-0.2685,-0.2673,-0.263,-0.2623,-0.261,-0.2569,-0.2543,-0.2442,-0.2448,-0.2434,-0.2425,-0.2325,-0.2325,-0.2324,-0.2363,-0.2366,-0.2368,0,0,0,0,0,0,-0.2922,-0.2845,-0.2827,-0.2786,-0.2742,-0.2675,-0.2659,-0.2634,-0.2591,-0.2589,-0.2536,-0.2521,-0.2481,-0.2448,-0.2457,-0.2393,-0.2381,-0.2378,-0.2415,-0.2418,-0.242,-0.2428,-0.2423,0,0,0,0,0,-0.2928,-0.2892,-0.2827,-0.2797,-0.2776,-0.2721,-0.2697,-0.2667,-0.2619,-0.26,-0.2556,-0.251,-0.2467,-0.2441,-0.2398,-0.2359,-0.2344,-0.2346,-0.2348,-0.235,-0.2348,-0.2324,-0.2324,-0.2323,-0.2323,-0.2323,0,0,-0.2939,-0.2893,-0.2874,-0.2805,-0.2768,-0.2731,-0.2706,-0.2668,-0.2641,-0.2594,-0.2549,-0.2515,-0.246,-0.2418,-0.2397,-0.2389,-0.2345,-0.235,-0.2352,-0.2348,-0.2324,-0.2324,-0.2324,-0.2322,-0.2323,-0.2323,0,0,-0.2942,-0.2903,-0.2874,-0.2837,-0.2781,-0.2745,-0.2738,-0.2675,-0.265,-0.2604,-0.2569,-0.2535,-0.2463,-0.2425,-0.2397,-0.2385,-0.236,-0.2373,-0.2384,-0.2361,-0.2361,-0.2361,-0.2357,-0.2356,-0.2371,-0.2371,-0.2371,0,-0.2963,-0.2907,-0.2862,-0.2827,-0.2797,-0.2755,-0.2724,-0.269,-0.2623,-0.2604,-0.2596,-0.2506,-0.2466,-0.2414,-0.2411,-0.239,-0.2379,-0.238,-0.2365,-0.2365,-0.2364,-0.2359,-0.2357,-0.2373,-0.2372,-0.2372,-0.2372,0,-0.2936,-0.2898,-0.2881,-0.2818,-0.2787,-0.2754,-0.2703,-0.2677,-0.265,-0.2614,-0.2567,-0.2518,-0.2465,-0.245,-0.2423,-0.2394,-0.2392,-0.2376,-0.2363,-0.2367,-0.2361,-0.2359,-0.2375,-0.2375,-0.2374,-0.2374,0,0,-0.2966,-0.2878,-0.2873,-0.2843,-0.2778,-0.2748,-0.2713,-0.2661,-0.2639,-0.2594,-0.2563,-0.2504,-0.2488,-0.2456,-0.2424,-0.2405,-0.2398,-0.2391,-0.2389,-0.2394,-0.2363,-0.2375,-0.2374,-0.2381,-0.2381,-0.238,-0.2367,0,-0.2959,-0.2895,-0.2853,-0.2806,-0.2769,-0.2728,-0.2697,-0.2654,-0.262,-0.2583,-0.2545,-0.2503,-0.2486,-0.2467,-0.2445,-0.2404,-0.2391,-0.2404,-0.2351,-0.235,-0.2366,-0.2371,-0.2384,-0.2374,-0.2365,-0.2364,-0.2364,0,-0.2943,-0.2899,-0.2849,-0.2787,-0.277,-0.2744,-0.2693,-0.2659,-0.2609,-0.2585,-0.2549,-0.2517,-0.2477,-0.2468,-0.2413,-0.2422,-0.2398,-0.2374,-0.2373,-0.2366,-0.2357,-0.2364,-0.237,-0.2369,-0.236,-0.2361,-0.2361,0,-0.2969,-0.2898,-0.2858,-0.2835,-0.2762,-0.2744,-0.2713,-0.2663,-0.2634,-0.259,-0.2571,-0.2522,-0.2495,-0.2458,-0.2413,-0.2411,-0.2362,-0.2349,-0.234,-0.2342,-0.2332,-0.2333,-0.2334,-0.2317,-0.2317,-0.2317,-0.2317,0,-0.2966,-0.2936,-0.2869,-0.2845,-0.281,-0.2762,-0.2729,-0.2694,-0.2649,-0.2617,-0.2578,-0.2548,-0.2491,-0.2454,-0.2418,-0.2378,-0.2366,-0.2345,-0.2336,-0.2348,-0.2351,-0.2331,-0.2331,-0.2316,-0.2316,-0.2317,-0.2317,0,-0.299,-0.2944,-0.2898,-0.2833,-0.2816,-0.2793,-0.2738,-0.2712,-0.2675,-0.2635,-0.2622,-0.2565,-0.2519,-0.2471,-0.2408,-0.2385,-0.2345,-0.2332,-0.2362,-0.2357,-0.2351,-0.2352,-0.2339,-0.2335,-0.2322,-0.2322,-0.2322,0,-0.2991,-0.2967,-0.29,-0.2876,-0.2846,-0.2807,-0.2778,-0.273,-0.2701,-0.2641,-0.2623,-0.2574,-0.2533,-0.2462,-0.2414,-0.2366,-0.2351,-0.235,-0.2344,-0.2357,-0.2351,-0.2353,-0.235,-0.2352,-0.2353,-0.2353,-0.2353,0,-0.2998,-0.2976,-0.2936,-0.2888,-0.2855,-0.2814,-0.2773,-0.2755,-0.2698,-0.2667,-0.262,-0.2588,-0.2525,-0.2477,-0.2423,-0.239,-0.2362,-0.2356,-0.2351,-0.2363,-0.2382,-0.2371,-0.2368,-0.2356,-0.2356,-0.2356,-0.2355,-0.2355,-0.301,-0.2987,-0.2936,-0.2893,-0.2856,-0.2818,-0.279,-0.2751,-0.2711,-0.2656,-0.2629,-0.2583,-0.2532,-0.2457,-0.2424,-0.2386,-0.2378,-0.2371,-0.2369,-0.2369,-0.2372,-0.2388,-0.2376,-0.2376,-0.2376,-0.2376,-0.2375,0,-0.3015,-0.298,-0.2941,-0.2883,-0.2849,-0.2826,-0.2779,-0.2751,-0.2711,-0.2666,-0.2626,-0.2572,-0.2525,-0.2474,-0.2423,-0.2403,-0.2389,-0.2391,-0.2392,-0.2385,-0.2382,-0.2391,-0.2404,-0.2404,-0.2404,-0.2404,-0.2404,-0.2404,-0.3013,-0.2973,-0.2945,-0.2886,-0.2851,-0.2805,-0.278,-0.2744,-0.2708,-0.2649,-0.2611,-0.2577,-0.253,-0.2476,-0.2431,-0.2417,-0.2401,-0.2407,-0.2389,-0.2387,-0.2385,-0.2383,-0.2391,-0.2404,-0.2404,-0.2395,-0.2395,-0.2395]},{"header":{"parameterUnit":"m.s-1","parameterCategory":1,"la1":30.2991,"la2":30.254,"lo1":-89.0895,"lo2":-89.0444,"dy":0.0017,"dx":0.0017,"nx":28,"ny":28,"refTime":"2024-05-10T09:00:00:Z","depth":0,"parameterNumber":3,"parameterNumberName":"V-component_of_WINDS"},"data":[0,0,0,0,0,0,0,0,0,0,0,0,0,0,0,0,0,0,0,0,0,0,0,0,0,0,0,0,0,0,0,0,0,0,0,0,0,0,0,0,0,0,0,0,0,0,0,0,0,0,0,0,0,0,0,0,0,0,0.7587,0.7585,0,0.742,0.7418,0.7416,0.7311,0.7311,0.731,0.731,0.7136,0.7132,0.7128,0,0,0,0,0,0,0,0,0,0,0,0,0,0.7812,0.7809,0.7587,0.7585,0.7583,0.742,0.7418,0.7416,0.7312,0.7311,0.731,0.7309,0.7138,0.7133,0.7128,0,0,0,0,0,0,0,0,0,0,0,0,0,0.7687,0.7808,0.7588,0.7511,0.7503,0.7421,0.7418,0.7415,0.7312,0.7311,0.731,0.7309,0.7139,0.7133,0.7127,0.7107,0,0,0.7109,0.7106,0,0,0,0,0,0,0,0,0.7694,0.7679,0.7525,0.7516,0.7507,0.7386,0.7434,0.7312,0.7312,0.7384,0.731,0.7309,0.722,0.7207,0.7178,0.7099,0.7092,0.7108,0.7104,0.7102,0.71,0,0,0,0,0,0,0,0.7703,0.7685,0.7521,0.7523,0.7512,0.7485,0.7466,0.741,0.7309,0.7378,0.737,0.7352,0.7215,0.7184,0.7173,0.7089,0.7108,0.7103,0.7099,0.7097,0.6982,0.6983,0,0,0,0,0,0,0.7724,0.7693,0.7526,0.7516,0.76,0.7481,0.746,0.7425,0.7309,0.7291,0.7353,0.7347,0.7195,0.718,0.7166,0.7132,0.7102,0.7096,0.7093,0.6982,0.6982,0.6983,0,0,0,0,0,0,0.773,0.771,0.7533,0.7602,0.7578,0.7478,0.744,0.7423,0.7391,0.729,0.7271,0.734,0.7193,0.7175,0.7122,0.7125,0.7093,0.7088,0.6981,0.6982,0.6983,0.7067,0,0,0,0,0,0,0.7736,0.7713,0.7705,0.7603,0.7575,0.7493,0.744,0.742,0.7381,0.7373,0.7273,0.7256,0.7191,0.7132,0.7116,0.7116,0.7083,0.698,0.6981,0.6983,0.7063,0.707,0.7076,0,0,0,0,0,0.7745,0.7735,0.7705,0.7686,0.7563,0.7493,0.7477,0.7404,0.7382,0.7373,0.7307,0.7259,0.7128,0.7127,0.7109,0.7107,0.698,0.6981,0.6982,0.706,0.7069,0.7076,0,0,0,0,0,0,0.784,0.7721,0.7686,0.7643,0.7579,0.7476,0.7461,0.7416,0.7356,0.735,0.7262,0.724,0.7195,0.7146,0.7147,0.708,0.7048,0.7046,0.7113,0.7121,0.7127,0.7139,0.7078,0,0,0,0,0,0.7856,0.781,0.7709,0.7681,0.765,0.7562,0.7529,0.7478,0.7408,0.738,0.7311,0.7244,0.7187,0.7152,0.7094,0.7056,0.7031,0.7046,0.7052,0.7058,0.7057,0.703,0.7034,0.6988,0.6988,0.6988,0,0,0.7888,0.7818,0.7794,0.7698,0.7642,0.7596,0.754,0.7493,0.7457,0.7373,0.7318,0.7265,0.7184,0.7138,0.7114,0.7096,0.7064,0.706,0.7066,0.706,0.7032,0.7036,0.704,0.6989,0.6989,0.6988,0,0,0.7923,0.7867,0.7835,0.7781,0.7698,0.7639,0.7632,0.7535,0.7496,0.744,0.7375,0.7331,0.7236,0.718,0.7139,0.7153,0.7104,0.7137,0.717,0.7145,0.7149,0.7152,0.7154,0.7156,0.7136,0.7136,0.7136,0,0.7974,0.7901,0.7825,0.7782,0.774,0.7663,0.763,0.758,0.7483,0.7455,0.7436,0.7314,0.7254,0.7193,0.7196,0.7166,0.7153,0.7146,0.7155,0.7157,0.7158,0.7159,0.716,0.714,0.714,0.7139,0.7139,0,0.7966,0.7917,0.7902,0.7809,0.7767,0.7729,0.7646,0.7612,0.7565,0.7508,0.745,0.7376,0.7301,0.7283,0.7237,0.7214,0.7205,0.7172,0.7138,0.7168,0.7167,0.7167,0.7146,0.7145,0.7143,0.7142,0,0,0.8054,0.792,0.7916,0.7871,0.7774,0.7734,0.7692,0.7619,0.759,0.7526,0.7486,0.7408,0.7376,0.733,0.7277,0.7256,0.7267,0.7224,0.7221,0.7232,0.7234,0.7258,0.726,0.7236,0.7236,0.7235,0.724,0,0.8072,0.7993,0.7923,0.787,0.7822,0.7747,0.771,0.7646,0.7591,0.7542,0.7481,0.7426,0.739,0.7361,0.7337,0.7271,0.7266,0.727,0.7196,0.7194,0.7216,0.7259,0.7284,0.7292,0.7239,0.7239,0.7239,0,0.8082,0.802,0.7962,0.7867,0.7844,0.7813,0.7739,0.7694,0.7618,0.758,0.7529,0.7473,0.7423,0.7397,0.7326,0.733,0.7296,0.7259,0.7258,0.7245,0.7217,0.7246,0.7293,0.7294,0.7238,0.7238,0.7239,0,0.8149,0.8051,0.8003,0.7968,0.7857,0.7836,0.7788,0.7712,0.7672,0.7608,0.7581,0.7512,0.7474,0.7421,0.7348,0.7335,0.7284,0.7251,0.7248,0.725,0.7238,0.724,0.7278,0.7222,0.7222,0.7222,0.7222,0,0.8174,0.8141,0.8031,0.8001,0.796,0.788,0.7842,0.7788,0.7721,0.7678,0.761,0.7571,0.7478,0.7427,0.7369,0.7318,0.7302,0.7268,0.7252,0.7272,0.7276,0.7247,0.7243,0.7222,0.7222,0.7222,0.7222,0,0.8241,0.8166,0.8108,0.8008,0.7982,0.7956,0.7869,0.7837,0.7779,0.7725,0.7708,0.7616,0.7553,0.7475,0.7387,0.7348,0.7302,0.728,0.7327,0.7318,0.7318,0.7318,0.7337,0.7334,0.7283,0.7284,0.7284,0,0.826,0.8232,0.8129,0.8096,0.805,0.7998,0.7957,0.7877,0.7836,0.7748,0.7725,0.7657,0.7598,0.75,0.7425,0.7356,0.7331,0.7342,0.732,0.734,0.7327,0.7329,0.7324,0.7347,0.7348,0.7349,0.7349,0,0.8302,0.8266,0.821,0.814,0.8093,0.8035,0.7973,0.7949,0.7856,0.7814,0.7749,0.7703,0.7613,0.7545,0.7467,0.7417,0.7367,0.7358,0.7352,0.7371,0.7398,0.7381,0.734,0.7357,0.7356,0.7355,0.7355,0.7355,0.8343,0.8314,0.8237,0.8175,0.8121,0.8065,0.8028,0.7966,0.791,0.7831,0.7787,0.7722,0.7646,0.7536,0.7488,0.7435,0.7417,0.7411,0.7408,0.7407,0.7412,0.741,0.7421,0.742,0.742,0.742,0.7419,0,0.8379,0.8325,0.827,0.8186,0.8137,0.8097,0.8026,0.7987,0.7932,0.7865,0.7808,0.7732,0.7666,0.7586,0.7514,0.7487,0.7462,0.747,0.747,0.7459,0.7434,0.7444,0.7492,0.7492,0.7492,0.7492,0.7492,0.7492,0.8392,0.8339,0.8295,0.8214,0.816,0.8097,0.806,0.8007,0.7953,0.7871,0.7816,0.7765,0.7692,0.7614,0.7551,0.7529,0.7504,0.7519,0.749,0.7467,0.7461,0.7455,0.7464,0.7515,0.7515,0.7519,0.7519,0.7519]}]]